TUPOD

Last updated on Sept. 8, 2017, 12:15 a.m. UTC

1 41936U 98067KY  17250.57341446  .07502361  12188-4  17908-2 0  9997
2 41936  51.6148 320.0413 0007592 348.0024  12.1012 16.28694591 36150

Satellite is not in orbit.